GW2134 Weather Reports


Display with metric or nautical units.
time (UTC)temp
F
wind
direction
speed
MPH
gust
MPH
rain 1hr
in
rain 24hr
in
rain mn
in
humidity
%
barometer
mb
20260906171603 80 336 1.0 4.0 0.00 0.00 0.00 59 1026.5
20260906170108 81 355 2.0 4.0 0.00 0.00 0.00 57 1026.5
20260906164601 82 10 2.0 5.0 0.00 0.00 0.00 56 1026.4
20260906163101 83 333 2.0 5.0 0.00 0.00 0.00 53 1026.3
20260906161606 84 15 2.0 5.0 0.00 0.00 0.00 51 1026.3
20260906160057 86 360 1.0 7.0 0.00 0.00 0.00 48 1026.3
20260906154556 87 293 3.0 10.0 0.00 0.00 0.00 47 1026.2
20260906153109 88 0 1.0 4.0 0.00 0.00 0.00 46 1026.2
20260906151556 87 0 1.0 3.0 0.00 0.00 0.00 47 1026.3
20260906150058 87 127 0.0 3.0 0.00 0.00 0.00 47 1026.2
20260906144601 87 0 1.0 5.0 0.00 0.00 0.00 47 1026.4
20260906143102 87 113 2.0 6.0 0.00 0.00 0.00 47 1026.3
20260906141612 87 296 0.0 4.0 0.00 0.00 0.00 48 1026.2
20260906140109 86 98 4.0 10.0 0.00 0.00 0.00 47 1026.1
20260906134612 88 284 1.0 9.0 0.00 0.00 0.00 47 1026.3
20260906133056 88 123 3.0 11.0 0.00 0.00 0.00 46 1026.3
20260906131600 88 0 4.0 9.0 0.00 0.00 0.00 46 1026.5
20260906130106 87 92 2.0 10.0 0.00 0.00 0.00 48 1026.5
20260906124558 87 139 5.0 11.0 0.00 0.00 0.00 49 1026.6
20260906123055 87 98 2.0 8.0 0.00 0.00 0.00 48 1026.6
20260906121607 87 110 4.0 10.0 0.00 0.00 0.00 48 1026.6
20260906120108 86 128 5.0 12.0 0.00 0.00 0.00 50 1026.5
20260906114627 86 277 3.0 13.0 0.00 0.00 0.00 50 1026.4
20260906113100 86 130 5.0 11.0 0.00 0.00 0.00 50 1026.5
20260906111624 86 200 3.0 10.0 0.00 0.00 0.00 50 1026.5
20260906104603 85 140 2.0 12.0 0.00 0.00 0.00 49 1026.6
20260906103101 85 152 3.0 9.0 0.00 0.00 0.00 49 1026.7
20260906101554 84 123 3.0 10.0 0.00 0.00 0.00 50 1026.9
20260906100100 84 130 2.0 10.0 0.00 0.00 0.00 49 1026.9
20260906094555 83 196 4.0 10.0 0.00 0.00 0.00 49 1026.9
20260906093109 84 160 1.0 7.0 0.00 0.00 0.00 53 1026.9
20260906091604 83 115 1.0 3.0 0.00 0.00 0.00 54 1027.0
20260906090115 81 111 1.0 5.0 0.00 0.00 0.00 56 1026.9
20260906084608 80 117 0.0 6.0 0.00 0.00 0.00 58 1026.9
20260906083054 79 144 1.0 5.0 0.00 0.00 0.00 60 1026.9
20260906081607 79 114 1.0 4.0 0.00 0.00 0.00 62 1026.9
20260906080056 77 137 1.0 6.0 0.00 0.00 0.00 63 1026.8
20260906074611 77 113 1.0 5.0 0.00 0.00 0.00 64 1026.7
20260906073109 76 154 2.0 5.0 0.00 0.00 0.00 66 1026.6
20260906071554 76 152 1.0 5.0 0.00 0.00 0.00 66 1026.4
20260906070134 74 0 0.0 4.0 0.00 0.00 0.00 67 1026.2
20260906064559 73 0 0.0 2.0 0.00 0.00 0.00 69 1026.1
20260906063056 72 0 0.0 2.0 0.00 0.00 0.00 71 1026.1
20260906061620 71 0 0.0 1.0 0.00 0.00 0.00 72 1026.0
20260906060104 70 0 0.0 1.0 0.00 0.00 0.00 73 1025.8
20260906054600 70 0 0.0 2.0 0.00 0.00 0.00 72 1025.7
20260906053101 70 0 0.0 1.0 0.00 0.00 0.00 71 1025.6
20260906051558 70 0 0.0 2.0 0.00 0.00 0.00 70 1025.5
20260906050115 70 0 0.0 4.0 0.00 0.00 0.00 70 1025.5
20260906044556 69 360 1.0 3.0 0.00 0.00 0.00 70 1025.5
20260906043111 69 0 0.0 1.0 0.00 0.00 0.00 71 1025.3
20260906041600 69 0 0.0 1.0 0.00 0.00 0.00 71 1025.2
20260906040116 70 0 0.0 0.0 0.00 0.00 0.00 70 1025.1
20260906034601 70 0 0.0 1.0 0.00 0.00 0.00 70 1025.0
20260906033102 70 355 0.0 3.0 0.00 0.00 0.00 69 1024.8
20260906031611 70 0 0.0 1.0 0.00 0.00 0.00 69 1024.7
20260906030110 70 0 0.0 1.0 0.00 0.00 0.00 69 1024.6
20260906024554 71 0 0.0 1.0 0.00 0.00 0.00 69 1024.7
20260906023131 71 0 0.0 1.0 0.00 0.00 0.00 68 1024.7
20260906021600 71 0 0.0 1.0 0.00 0.00 0.00 69 1024.8
20260906020108 71 0 0.0 1.0 0.00 0.00 0.00 69 1024.6
20260906014626 71 0 0.0 2.0 0.00 0.00 0.00 69 1024.6
20260906013104 71 0 0.0 0.0 0.00 0.00 0.00 70 1024.5
20260906011603 71 0 0.0 0.0 0.00 0.00 0.00 70 1024.5
20260906004607 71 355 0.0 2.0 0.00 0.00 0.00 70 1024.4
20260906003104 71 355 0.0 1.0 0.00 0.00 0.00 71 1024.4
20260906001600 71 0 0.0 2.0 0.00 0.00 0.00 69 1024.5
20260906000107 71 0 0.0 0.0 0.00 0.00 0.00 72 1024.6
20260905234605 71 0 0.0 0.0 0.00 0.00 0.00 72 1024.5
20260905233104 71 0 0.0 0.0 0.00 0.00 0.00 72 1024.5
20260905231559 71 0 0.0 1.0 0.00 0.00 0.00 71 1024.5
20260905230109 71 0 0.0 2.0 0.00 0.00 0.00 71 1024.5
20260905224608 71 0 0.0 1.0 0.00 0.00 0.00 70 1024.5
20260905223100 71 0 0.0 3.0 0.00 0.00 0.00 71 1024.4
20260905221556 71 346 2.0 4.0 0.00 0.00 0.00 71 1024.4
20260905220121 71 0 0.0 1.0 0.00 0.00 0.00 71 1024.3
20260905214600 72 0 0.0 0.0 0.00 0.00 0.00 73 1024.2
20260905213104 72 0 0.0 1.0 0.00 0.00 0.00 73 1024.1
20260905211554 72 0 0.0 2.0 0.00 0.00 0.00 74 1024.0
20260905210104 72 350 0.0 2.0 0.00 0.00 0.00 73 1024.0
20260905204600 73 350 1.0 4.0 0.00 0.00 0.00 72 1024.0
20260905203107 73 355 0.0 2.0 0.00 0.00 0.00 71 1023.9
20260905201603 74 336 1.0 3.0 0.00 0.00 0.00 71 1023.9
20260905194558 74 319 1.0 4.0 0.00 0.00 0.00 71 1023.8
20260905193104 75 319 2.0 4.0 0.00 0.00 0.00 70 1023.7
20260905191604 75 335 1.0 5.0 0.00 0.00 0.00 69 1023.5
20260905190113 75 355 2.0 4.0 0.00 0.00 0.00 69 1023.2
20260905184604 76 336 2.0 6.0 0.00 0.00 0.00 68 1023.1
20260905183125 76 328 2.0 5.0 0.00 0.00 0.00 68 1023.1
20260905181605 76 336 3.0 6.0 0.00 0.00 0.00 67 1022.9
20260905174555 77 336 4.0 6.0 0.00 0.00 0.00 66 1022.7
20260905173103 78 360 3.0 6.0 0.00 0.00 0.00 65 1022.6